TimeCST,TemperatureF,Dew PointF,Humidity,Sea Level PressureIn,VisibilityMPH,Wind Direction,Wind SpeedMPH,Gust SpeedMPH,PrecipitationIn,Events,Conditions,WindDirDegrees,DateUTC
12:35 AM,48.2,24.8,40,30.08,10.0,WNW,8.1,-,N/A,,Clear,300,2011-11-13 06:35:00
12:55 AM,51.8,28.4,41,30.08,10.0,WNW,8.1,-,N/A,,Clear,300,2011-11-13 06:55:00
1:15 AM,48.2,28.4,46,30.08,10.0,WNW,8.1,-,N/A,,Clear,290,2011-11-13 07:15:00
1:35 AM,48.2,30.2,50,30.08,10.0,WNW,9.2,-,N/A,,Clear,300,2011-11-13 07:35:00
2:15 AM,48.2,30.2,50,30.06,10.0,WNW,8.1,-,N/A,,Mostly Cloudy,290,2011-11-13 08:15:00
2:35 AM,48.2,30.2,50,30.05,10.0,West,6.9,-,N/A,,Clear,280,2011-11-13 08:35:00
2:55 AM,48.2,32.0,54,30.04,10.0,SW,6.9,-,N/A,,Clear,220,2011-11-13 08:55:00
3:15 AM,48.2,30.2,50,30.04,10.0,South,9.2,-,N/A,,Clear,170,2011-11-13 09:15:00
3:35 AM,48.2,30.2,50,30.04,10.0,SSE,5.8,-,N/A,,Partly Cloudy,150,2011-11-13 09:35:00
3:55 AM,42.8,28.4,57,30.04,10.0,ESE,5.8,-,N/A,,Clear,110,2011-11-13 09:55:00
4:15 AM,44.6,30.2,57,30.04,10.0,SSE,5.8,-,N/A,,Clear,160,2011-11-13 10:15:00
4:35 AM,44.6,30.2,57,30.03,10.0,SSE,6.9,-,N/A,,Clear,150,2011-11-13 10:35:00
4:55 AM,44.6,28.4,53,30.03,10.0,Calm,Calm,-,N/A,,Clear,0,2011-11-13 10:55:00
5:15 AM,42.8,28.4,57,30.04,10.0,Calm,Calm,-,N/A,,Clear,0,2011-11-13 11:15:00
5:35 AM,42.8,28.4,57,30.04,10.0,SW,4.6,-,N/A,,Clear,220,2011-11-13 11:35:00
5:55 AM,46.4,30.2,53,30.04,10.0,WSW,8.1,-,N/A,,Clear,250,2011-11-13 11:55:00
6:15 AM,46.4,32.0,57,30.04,10.0,West,8.1,-,N/A,,Clear,270,2011-11-13 12:15:00
6:55 AM,46.4,30.2,53,30.03,10.0,West,9.2,-,N/A,,Clear,260,2011-11-13 12:55:00
7:15 AM,44.6,30.2,57,30.04,10.0,West,6.9,-,N/A,,Clear,260,2011-11-13 13:15:00
7:35 AM,46.4,32.0,57,30.04,10.0,West,5.8,-,N/A,,Clear,270,2011-11-13 13:35:00
7:55 AM,48.2,33.8,58,30.04,10.0,West,5.8,-,N/A,,Clear,260,2011-11-13 13:55:00
8:35 AM,55.4,35.6,47,30.04,10.0,WSW,10.4,-,N/A,,Clear,250,2011-11-13 14:35:00
8:55 AM,57.2,35.6,44,30.05,10.0,SW,10.4,-,N/A,,Clear,230,2011-11-13 14:55:00
9:15 AM,57.2,33.8,41,30.07,10.0,South,6.9,-,N/A,,Clear,190,2011-11-13 15:15:00
9:35 AM,60.8,35.6,39,30.06,10.0,SSW,10.4,-,N/A,,Clear,200,2011-11-13 15:35:00
9:55 AM,60.8,35.6,39,30.07,10.0,South,9.2,-,N/A,,Clear,190,2011-11-13 15:55:00
10:15 AM,62.6,35.6,37,30.07,10.0,SW,11.5,16.1,N/A,,Clear,220,2011-11-13 16:15:00
10:35 AM,66.2,35.6,32,30.08,10.0,SW,15.0,-,N/A,,Clear,230,2011-11-13 16:35:00
10:55 AM,68.0,33.8,28,30.07,10.0,WSW,18.4,26.5,N/A,,Clear,240,2011-11-13 16:55:00
11:15 AM,69.8,35.6,28,30.07,10.0,WSW,24.2,27.6,N/A,,Clear,240,2011-11-13 17:15:00
11:35 AM,69.8,35.6,28,30.07,10.0,WSW,24.2,-,N/A,,Clear,250,2011-11-13 17:35:00
11:55 AM,69.8,35.6,28,30.06,10.0,WSW,21.9,28.8,N/A,,Clear,240,2011-11-13 17:55:00
12:15 PM,69.8,35.6,28,30.04,10.0,WSW,21.9,27.6,N/A,,Clear,240,2011-11-13 18:15:00
12:35 PM,71.6,35.6,27,30.02,10.0,SW,18.4,26.5,N/A,,Clear,220,2011-11-13 18:35:00
12:55 PM,69.8,35.6,28,30.01,10.0,SSW,19.6,25.3,N/A,,Clear,210,2011-11-13 18:55:00
1:15 PM,71.6,35.6,27,30.01,10.0,SW,23.0,-,N/A,,Clear,220,2011-11-13 19:15:00
1:35 PM,71.6,35.6,27,30.00,10.0,SW,23.0,27.6,N/A,,Clear,220,2011-11-13 19:35:00
1:55 PM,69.8,35.6,28,30.01,10.0,West,21.9,26.5,N/A,,Clear,270,2011-11-13 19:55:00
2:15 PM,68.0,35.6,30,30.00,10.0,West,18.4,23.0,N/A,,Clear,260,2011-11-13 20:15:00
2:35 PM,69.8,35.6,28,29.99,10.0,WSW,16.1,23.0,N/A,,Clear,250,2011-11-13 20:35:00
2:55 PM,69.8,35.6,28,29.99,10.0,WSW,18.4,23.0,N/A,,Clear,240,2011-11-13 20:55:00
3:15 PM,69.8,35.6,28,29.99,10.0,WSW,18.4,23.0,N/A,,Clear,250,2011-11-13 21:15:00
3:35 PM,68.0,35.6,30,29.98,10.0,SW,19.6,24.2,N/A,,Clear,230,2011-11-13 21:35:00
3:55 PM,66.2,35.6,32,29.99,10.0,WSW,23.0,-,N/A,,Clear,240,2011-11-13 21:55:00
4:15 PM,66.2,35.6,32,29.99,10.0,SW,20.7,-,N/A,,Clear,230,2011-11-13 22:15:00
4:35 PM,66.2,35.6,32,29.99,10.0,SW,20.7,27.6,N/A,,Clear,220,2011-11-13 22:35:00
4:55 PM,66.2,35.6,32,30.00,10.0,SW,23.0,26.5,N/A,,Clear,220,2011-11-13 22:55:00
5:15 PM,64.4,35.6,34,30.00,10.0,SW,17.3,-,N/A,,Clear,220,2011-11-13 23:15:00
5:35 PM,64.4,35.6,34,30.01,10.0,SW,13.8,-,N/A,,Clear,230,2011-11-13 23:35:00
5:55 PM,62.6,35.6,37,30.00,10.0,SW,9.2,-,N/A,,Clear,230,2011-11-13 23:55:00
6:15 PM,60.8,33.8,36,30.00,10.0,SW,8.1,-,N/A,,Clear,230,2011-11-14 00:15:00
6:35 PM,59.0,33.8,39,30.00,10.0,SW,5.8,-,N/A,,Clear,230,2011-11-14 00:35:00
6:55 PM,55.4,33.8,44,30.01,10.0,Calm,Calm,-,N/A,,Clear,0,2011-11-14 00:55:00
7:15 PM,57.2,33.8,41,30.02,10.0,SW,5.8,-,N/A,,Clear,230,2011-11-14 01:15:00
7:35 PM,55.4,33.8,44,30.01,10.0,SSW,6.9,-,N/A,,Clear,210,2011-11-14 01:35:00
7:55 PM,55.4,33.8,44,30.02,10.0,South,5.8,-,N/A,,Clear,180,2011-11-14 01:55:00
8:15 PM,55.4,33.8,44,30.03,10.0,South,3.5,-,N/A,,Clear,180,2011-11-14 02:15:00
8:35 PM,55.4,32.0,41,30.03,10.0,Calm,Calm,-,N/A,,Clear,0,2011-11-14 02:35:00
9:15 PM,53.6,32.0,44,30.03,10.0,WSW,3.5,-,N/A,,Clear,240,2011-11-14 03:15:00
9:35 PM,53.6,32.0,44,30.03,10.0,WSW,5.8,-,N/A,,Clear,250,2011-11-14 03:35:00
9:55 PM,53.6,32.0,44,30.02,10.0,WSW,4.6,-,N/A,,Clear,240,2011-11-14 03:55:00
10:15 PM,51.8,30.2,44,30.03,10.0,ENE,6.9,-,N/A,,Clear,60,2011-11-14 04:15:00
10:35 PM,51.8,30.2,44,30.03,10.0,East,5.8,-,N/A,,Clear,80,2011-11-14 04:35:00
10:55 PM,50.0,30.2,47,30.03,10.0,East,6.9,-,N/A,,Clear,90,2011-11-14 04:55:00
11:15 PM,51.8,32.0,47,30.04,10.0,East,3.5,-,N/A,,Clear,90,2011-11-14 05:15:00
11:35 PM,50.0,30.2,47,30.03,10.0,North,3.5,-,N/A,,Clear,10,2011-11-14 05:35:00
11:55 PM,48.2,28.4,46,30.03,10.0,ENE,8.1,-,N/A,,Clear,60,2011-11-14 05:55:00